Location: ????????
(60.5616°N, 46.8254°E)
Time: 18:26:12
(UTC+00:00)

Cosmos 371 Rocket - Pass Details

Date: 18 February 2020
Orbit: 685 x 698 km, 74.0° (Epoch: 31 March)

Event Time Altitude Azimuth Distance (km) Brightness Sun altitude
Rises 14:33:50 0° 213° (SSW) 3,068 7.4 -6.2°
Reaches altitude 10° 14:36:08 10° 214° (SW) 2,152 6.6 -6.5°
Maximum altitude 14:41:00 85° 302° (WNW) 704 3.4 -7.0°
Drops below altitude 10° 14:45:53 10° 33° (NNE) 2,156 5.4 -7.6°
Sets 14:48:12 0° 34° (NE) 3,074 6.2 -7.9°
